Atlanta Fulton, GA

11:56 AM EDT on July 28, 2017 (GMT -0400)
Fulton County-Brown

Weather History for KFTY - November, 2012

Change the Weather History Date:

Thursday, November 8, 2012

  Actual Average Record
Temperature  
Mean Temperature 50 °F 55 °F  
Max Temperature 61 °F 67 °F 84 °F (2005)
Min Temperature 39 °F 44 °F 27 °F (2007)
Degree Days  
Heating Degree Days 15 10  
Month to date heating degree days 73  
Since 1 July heating degree days 216  
Moisture  
Dew Point 38 °F    
Average Humidity 76    
Maximum Humidity 93    
Minimum Humidity 36    
Precipitation  
Precipitation 0.00 in 0.13 in 1.09 in (2015)
Month to date precipitation 0.94  
Year to date precipitation 43.95  
Sea Level Pressure  
Sea Level Pressure 30.15 in    
Wind  
Wind Speed 2 mph (NW)    
Max Wind Speed 10 mph    
Max Gust Speed -    
Visibility 9 miles    
Events      
T = Trace of Precipitation, MM = Missing Value Source: NWS Daily Summary

Daily Weather History Graph

Daily Weather History Graph

Search for Another Location

Airport or City:

Trip Planner

Search our weather history database for the weather conditions in past years. The results will help you decide how hot, cold, wet, or windy it might be!

Date:

Astronomy

Nov. 08, 2012 Rise Set
Actual Time 7:04 AM EST 5:39 PM EST
Civil Twilight 6:37 AM EST 6:05 PM EST
Nautical Twilight 6:08 AM EST 6:35 PM EST
Astronomical Twilight 5:38 AM EST 7:04 PM EST
Moon 1:14 AM EST (11/8) 2:05 PM EST (11/8)
Length of Visible Light 11h 27m
Length of Day
10h 35m
Waning Crescent, 33% of the Moon is Illuminated
Nov 8
Waning Crescent
Nov 13
New
Nov 20
First Quarter
Nov 28
Full
Dec 6
Last Quarter

Hourly Weather History & Observations

Time (EST) Temp. Windchill Dew Point Humidity Pressure Visibility Wind Dir Wind Speed Gust Speed Precip Events Conditions
12:53 AM 42.1 °F - 39.0 °F 89% 30.06 in 10.0 mi Calm Calm - N/A   Clear
1:42 AM 42.8 °F - 39.2 °F 87% 30.07 in 10.0 mi Calm Calm - N/A   Partly Cloudy
1:53 AM 42.1 °F 40.2 °F 39.0 °F 89% 30.07 in 10.0 mi North 3.5 mph - N/A   Clear
2:53 AM 41.0 °F - 39.0 °F 93% 30.08 in 10.0 mi Calm Calm - N/A   Clear
3:53 AM 39.9 °F - 37.9 °F 93% 30.09 in 9.0 mi Calm Calm - N/A   Clear
4:53 AM 39.9 °F - 37.9 °F 93% 30.10 in 8.0 mi Calm Calm - N/A   Clear
5:53 AM 39.9 °F - 37.9 °F 93% 30.12 in 7.0 mi Calm Calm - N/A   Clear
6:49 AM 39.2 °F 37.0 °F 37.4 °F 93% 30.12 in 6.0 mi North 3.5 mph - N/A   Mostly Cloudy
6:53 AM 39.9 °F - 37.9 °F 93% 30.13 in 6.0 mi Calm Calm - N/A   Mostly Cloudy
7:53 AM 39.9 °F - 37.9 °F 93% 30.17 in 4.0 mi Calm Calm - N/A   Overcast
8:53 AM 42.1 °F 38.4 °F 39.9 °F 92% 30.19 in 6.0 mi NW 5.8 mph - N/A   Mostly Cloudy
9:32 AM 44.6 °F 41.4 °F 41.0 °F 87% 30.19 in 7.0 mi WNW 5.8 mph - N/A   Partly Cloudy
9:53 AM 46.0 °F 43.9 °F 39.9 °F 79% 30.20 in 9.0 mi WNW 4.6 mph - N/A   Clear
10:53 AM 50.0 °F - 39.9 °F 68% 30.20 in 10.0 mi NW 10.4 mph - N/A   Clear
11:53 AM 53.6 °F - 39.2 °F 58% 30.18 in 10.0 mi WNW 6.9 mph - N/A   Clear
12:53 PM 57.9 °F - 37.0 °F 46% 30.16 in 10.0 mi NNW 9.2 mph - N/A   Clear
1:53 PM 60.1 °F - 35.1 °F 39% 30.14 in 10.0 mi NNW 6.9 mph - N/A   Clear
2:53 PM 61.0 °F - 36.0 °F 39% 30.12 in 10.0 mi Calm Calm - N/A   Clear
3:53 PM 61.0 °F - 34.0 °F 36% 30.13 in 10.0 mi NW 9.2 mph - N/A   Clear
4:53 PM 59.0 °F - 34.0 °F 39% 30.14 in 10.0 mi WNW 9.2 mph - N/A   Clear
5:53 PM 55.0 °F - 33.1 °F 43% 30.15 in 10.0 mi NNW 3.5 mph - N/A   Clear
6:53 PM 48.9 °F - 36.0 °F 61% 30.18 in 10.0 mi Calm Calm - N/A   Clear
7:53 PM 43.0 °F - 37.0 °F 80% 30.19 in 10.0 mi Calm Calm - N/A   Clear
8:53 PM 41.0 °F - 37.0 °F 86% 30.19 in 10.0 mi Calm Calm - N/A   Clear
9:53 PM 39.9 °F - 37.0 °F 89% 30.19 in 10.0 mi Calm Calm - N/A   Clear
10:53 PM 39.0 °F - 37.0 °F 93% 30.20 in 10.0 mi Calm Calm - N/A   Clear
11:53 PM 39.0 °F - 37.0 °F 93% 30.20 in 10.0 mi Calm Calm - N/A   Clear